Tracking 33744 objects as of 12-Apr-2026
HD Live streaming from Space Station
objects crossing your sky now

COSMOS 1750

Track COSMOS 1750 now!
10-day predictions
COSMOS 1750 is classified as:


NORAD ID: 16760
Int'l Code: 1986-042C
Perigee: 1,414.7 km
Apogee: 1,477.2 km
Inclination: 74.0 °
Period: 114.6 minutes
Semi major axis: 7816 km
RCS: 0.6995 m2 (medium)
Launch date: June 6, 1986
Source: Commonwealth of Independent States (former USSR) (CIS)
Launch site: PLESETSK MISSILE AND SPACE COMPLEX (PKMTR)
Your satellite tracking list
Your tracking list is empty




NASA's NSSDC Master Catalog

Two Line Element Set (TLE):
1 16760U 86042C   26102.20001919 -.00000021  00000-0 -27439-4 0  9997
2 16760  74.0191 186.3659 0039988 319.2523  66.9382 12.56166268827323
Source of the keplerian elements: AFSPC